Notices

What's New in latest Release from April 7th, 2021:

- Updated Glossary, including Speed of Maximum Gust, and Total Hourly Precipitation

- Updated national and regional climate services offices contacts and prices information

- Addition of station inventory lists for 1981-2010, 1971-2000, and 1961-1990 Normals.

If you haven't already, please take our survey and provide feedback about our website: https://eccc.sondage-survey.ca/f/LanguageSelection.aspx?s=442ca660-fcf1-47c0-95a9-59707d6fd709

Hourly Data Report for March 28, 2017

TORONTO CITY
ONTARIO

43°40'00.000" N
79°24'00.000" W
112.50 m
6158355
71508
XTO

Download Data

Hourly Data (March 2017)
Hourly Data Report for March 28, 2017
TIME
LST
Temp Definition
°C
Dew Point Definition
°C
Rel Hum Definition
%
Precip. Amount Definition
mm

Wind Dir Definition
10's deg

Wind Spd Definition
km/h
Visibility Definition
km
Stn Press Definition
kPa
Hmdx Definition


Wind Chill Definition


Weather Definition


00:00 11.2 9.7 90 0.2 LegendMM LegendMM   99.82     LegendNANA
01:00 10.8 8.7 87 0.0 LegendMM LegendMM   99.82     LegendNANA
02:00 10.6 8.3 86 0.0 LegendMM LegendMM   99.81     LegendNANA
03:00 9.5 7.1 85 0.0 LegendMM LegendMM   99.81     LegendNANA
04:00 8.2 6.1 87 0.0 LegendMM LegendMM   99.83     LegendNANA
05:00 7.4 5.0 85 0.0 LegendMM LegendMM   99.87     LegendNANA
06:00 6.7 4.2 84 0.0 LegendMM LegendMM   99.95     LegendNANA
07:00 6.0 3.0 81 0.0 LegendMM LegendMM   100.01     LegendNANA
08:00 5.7 2.7 81 0.0 LegendMM LegendMM   100.07     LegendNANA
09:00 6.2 2.6 78 0.0 LegendMM LegendMM   100.13     LegendNANA
10:00 7.0 3.1 76 0.0 LegendMM LegendMM   100.16     LegendNANA
11:00 7.0 3.1 76 0.0 LegendMM LegendMM   100.19     LegendNANA
12:00 8.0 2.6 69 0.0 LegendMM LegendMM   100.16     LegendNANA
13:00 9.8 3.5 65 0.0 LegendMM LegendMM   100.17     LegendNANA
14:00 10.3 3.2 61 0.0 LegendMM LegendMM   100.18     LegendNANA
15:00 9.5 2.8 63 0.0 LegendMM LegendMM   100.24     LegendNANA
16:00 9.3 2.7 63 0.0 LegendMM LegendMM   100.31     LegendNANA
17:00 8.3 2.4 66 0.0 LegendMM LegendMM   100.39     LegendNANA
18:00 7.5 2.3 69 0.0 LegendMM LegendMM   100.48     LegendNANA
19:00 6.4 1.9 73 0.0 LegendMM LegendMM   100.58     LegendNANA
20:00 5.7 1.4 74 0.0 LegendMM LegendMM   100.65     LegendNANA
21:00 5.1 -0.2 69 0.0 LegendMM LegendMM   100.71     LegendNANA
22:00 4.7 -0.4 70 0.0 LegendMM LegendMM   100.74     LegendNANA
23:00 4.4 -0.7 70 0.0 LegendMM LegendMM   100.78     LegendNANA

Notes on Data Quality.

Legend

  • E = Estimated
  • M = Missing
  • NA = Not Available*
  • [empty] = Indicates an unobserved value
Date modified: